996  
ASUS41 KLWX 040512  
RWRLWX  
 
REGIONAL WEATHER ROUNDUP  
NATIONAL WEATHER SERVICE BALTIMORE MD/WASHINGTON DC  
100 AM EDT THU JUN 04 2020  
 
NOTE: "FAIR" INDICATES FEW OR NO CLOUDS BELOW 12,000 FEET  
WITH NO SIGNIFICANT WEATHER AND/OR S TO VISIBILITY
.  
TC=TEMPERATURE CELSIUS  
 
* =NON NWS SITE. STATION DOES NOT REPORT PRECIPITATION (E.G. RAIN,  
SNOW, ETC.), THUNDER, OR FOG.
 
 
DCZ001-MDZ009-015-VAZ040>042-051-053>054-040600-  
WASHINGTON METRO  
 
CITY SKY/WX TMP DP RH WIND PRES REMARKS
 
WASHINGTON NAT MOCLDY 83 62 49 W8 29.80R  
DULLES MOCLDY 78 59 51 W7 29.81R  
ANDREWS AFB PTCLDY 78 64 61 W5 29.80R  
FT BELVOIR FAIR 69 66 90 CALM 29.80R  
QUANTICO FAIR 78 63 59 CALM 29.80S  
COLLEGE PARK* FAIR 82 56 40 W5 29.79R  
LEESBURG* FAIR 75 63 64 W3 29.84R  
MANASSAS* FAIR 73 62 68 S5 29.81S  
GAITHERSBURG* FAIR 79 62 56 W9 29.83S  
 

 
 
MDZ006>007-011-014-040600-  
BALTIMORE METRO  
 
CITY SKY/WX TMP DP RH WIND PRES REMARKS
 
BWI AIRPORT CLOUDY 82 61 48 W9 29.78R  
ANNAPOLIS FAIR 81 64 56 NW6 29.78R  
ABERDEEN* FAIR 69 66 90 CALM 29.77R  
FORT MEADE* FAIR 77 63 61 W7 29.82R  
 

 
 
MDZ012-015-019>023-040600-  
MARYLAND EASTERN SHORE  
 
CITY SKY/WX TMP DP RH WIND PRES REMARKS
 
OCEAN CITY NOT AVBL  
SALISBURY NOT AVBL  
CAMBRIDGE* CLEAR 72 68 88 CALM 29.79R  
EASTON* FAIR 77 68 74 CALM 29.82S  
 

 
 
MDZ017>025-040600-  
SOUTHERN MARYLAND  
 
CITY SKY/WX TMP DP RH WIND PRES REMARKS
 
PATUXENT RIVER FAIR 79 67 66 W12 29.78R  
ST INIGOES FAIR 81 69 67 W6 29.78R  
LEONARDTOWN* NOT AVBL  
 

 
 
MDZ003>005-040600-  
NORTH CENTRAL MARYLAND  
 
CITY SKY/WX TMP DP RH WIND PRES REMARKS
 
FREDERICK* FAIR 79 63 57 W5 29.81S  
HAGERSTOWN APT FAIR 78 63 59 SW6 29.82R  
WESTMINSTER* FAIR 79 64 61 W7 29.82S  
 

 
 
MDZ501>502-040600-  
WESTERN MARYLAND  
 
CITY SKY/WX TMP DP RH WIND PRES REMARKS
 
OAKLAND* FAIR 64 59 82 W9 29.95S  
CUMBERLAND* FAIR 75 63 64 CALM 29.88F  
 

 
 
VAZ025>031-040600-  
SHENANDOAH VALLEY  
 
CITY SKY/WX TMP DP RH WIND PRES REMARKS
 
WINCHESTER* MOCLDY 73 59 60 NW3 29.83S  
FRONT ROYAL* FAIR 79 59 50 SW5 29.83R  
LURAY* FAIR 77 59 53 SW6 29.85F  
NEW MARKET* FAIR 71 64 79 CALM 29.87S  
STAUNTON* FAIR 76 58 53 W6 29.91S  
WAYNESBORO* FAIR 76 57 52 SW7 29.91S  
 

 
 
WVZ021-048>050-054>055-040600-  
EASTERN WEST VIRGINIA PANHANDLE  
 
CITY SKY/WX TMP DP RH WIND PRES REMARKS
 
MARTINSBURG FAIR 79 62 56 W12G20 29.82R  
PETERSBURG* HAZE 77 62 59 W3 29.86F VSB 3/4  
 

 
 
VAZ036>039-050-040600-  
CENTRAL FOOTHILLS  
 
CITY SKY/WX TMP DP RH WIND PRES REMARKS
 
CHARLOTTESVILL MOCLDY 77 59 53 S6 29.84S  
CULPEPER* FAIR 70 62 75 CALM 29.83S  
ORANGE* FAIR 73 61 64 S7 29.83S  
GORDONSVILLE* FAIR 81 60 48 CALM 29.83S  
WARRENTON* FAIR 70 61 72 CALM 29.81S  
 

 
 
VAZ055>057-040600-  
NORTH AND CENTRAL PIEDMONT  
 
CITY SKY/WX TMP DP RH WIND PRES REMARKS
 
FREDERICKSBRG* FAIR 73 65 77 CALM 29.80S  
STAFFORD* FAIR 74 63 67 NW6 29.84F  
 

 
 
NCZ024-NYZ072-PAZ021-071-VAZ022-071-040600-  
OTHER REGIONAL OBSERVATIONS  
 
CITY SKY/WX TMP DP RH WIND PRES REMARKS
 
NEW YORK CITY MOCLDY 67 65 93 MISG 29.76R  
PHILADELPHIA CLOUDY 71 68 90 W3 29.77R  
PITTSBURGH MOCLDY 70 63 78 SW7 29.85S  
ROANOKE FAIR 75 60 59 CALM 29.94S  
RICHMOND FAIR 81 68 64 W9 29.83R  
RALEIGH MOCLDY 77 69 76 SW10 29.92R  
 

 
 
ANZ530>537-040600-  
MARINE OBSERVATIONS  
 
STATION/POSITION TIME TEMP WIND PRES
 
AIR SEA DIR/SP/G  
(UTC) (F) (DEG/KT/KT) (MB)  
THOMAS PT LIGHT 0500 78 67 260/ 6/ 6 1009.5R  
TOLCHESTER 0430 78 72 290/ 8/ 9 1008.3R  
COVE POINT 0430 260/ 9/ 14 1008.9R  
BALT HARBOR 0430 85 68 320/ 6/ 10 1007.9R  
BALT KEY BRIDGE 0430 82 280/ 11/ 13 1008.1R  
WASH DC CHANNEL 0430 82 75 290/ 3/ 4 1008.8R  
DAHLGREN 0430 79 73 250/ 1/ 3 1008.3R  
LEWISETTA 0430 80 72 260/ 10/ 12 1008.9R  
SOLOMONS ISLAND 0430 77 69 260/ 8/ 11 1008.5R  
PINEY POINT 0424 260/ 10/ 11 N/A  
CAMBRIDGE PIER 0430 77 72 280/ 2/ 3 1008.5R  
BISHOPS HEAD 0430 75 74 250/ 10/ 11 1008.3R  
 

 
 
 
 
CLICK HERE TO GO TO PREVIOUS BULLETINS.

The Nexlab VA Page
The Nexlab MD Page
The Nexlab WV Page Main Text Page